Temperature
17 17 17 17 17 16 16 16 16 16 16 16 16 16 16 15 15 15 15 15 15 15 15 15 15 15 15 15 14 14 14 14 14 14 14 14 14 14
17 17 17 16 16 16 16 16 16 16 15 16 16 16 15 15 15 15 15 15 15 15 15 15 15 15 15 14 14 14 14 14 14 14 14 14 14 14
17 16 16 16 16 16 16 16 16 16 16 16 15 15 15 15 15 15 15 15 15 15 15 15 14 14 14 14 14 14 14 14 14 14 14 14 14 14
16 16 16 16 16 16 16 16 16 16 15 15 15 15 15 15 15 14 14 14 14 14 14 14 14 14 14 14 14 14 14 14 14 14 13 13 13 13
16 16 16 16 16 16 16 16 15 15 15 15 15 15 15 14 14 14 14 14 14 14 14 14 14 14 14 14 14 14 14 14 14 13 13 13 13 13
16 16 16 16 16 16 16 15 15 15 15 15 15 15 14 14 14 14 14 14 14 14 14 14 14 14 14 14 14 13 13 13 13 13 13 13 13 13
16 16 16 16 16 15 15 15 15 15 15 15 14 14 14 14 14 14 14 14 14 13 13 13 13 13 14 14 13 13 13 13 13 13 13 13 13 13
16 16 15 15 15 15 15 15 15 15 15 14 14 14 14 14 14 14 13 13 13 13 13 13 13 13 13 13 13 13 13 13 13 13 13 13 12 12
16 15 15 15 15 15 15 15 15 14 14 14 14 14 14 14 14 13 13 13 13 13 13 13 13 13 13 13 13 13 13 13 12 12 12 12 12 12
15 15 15 15 15 15 15 14 14 14 14 14 14 14 14 13 13 13 13 13 13 13 13 13 13 13 13 13 13 13 13 12 12 12 12 12 12 12
15 15 15 15 15 15 14 14 14 14 14 14 14 14 13 13 13 13 13 13 13 13 13 12 13 12 13 13 13 13 12 12 12 12 12 12 11 11
15 15 15 15 15 14 14 14 14 14 14 14 14 13 13 13 13 13 12 12 12 12 12 12 12 12 12 12 12 12 12 12 12 12 12 11 11 11
15 15 15 15 14 14 14 14 14 14 13 13 13 13 13 13 13 13 12 12 12 12 12 12 12 12 11 11 12 12 12 12 11 11 11 11 11 11
15 15 15 14 14 14 14 14 14 14 13 13 13 13 13 13 13 12 12 12 12 12 12 12 12 11 11 11 11 11 11 11 11 11 11 11 11 11
14 14 14 14 14 14 14 14 14 13 13 13 13 13 13 13 12 12 12 12 12 12 11 11 11 11 11 11 11 11 11 11 11 11 11 11 11 10
14 14 14 14 14 14 13 13 13 13 13 13 13 13 12 12 12 12 12 12 12 12 12 11 11 11 11 11 11 11 11 11 11 11 10 10 10 10
14 14 13 14 13 13 13 13 13 13 12 12 12 12 12 12 12 12 11 11 11 11 11 11 11 11 11 11 10 10 10 10 10 10 10 10 10 10
13 13 13 13 13 13 13 13 13 12 12 12 12 12 12 12 11 11 11 11 11 11 11 11 11 11 10 10 10 10 10 10 10 10 10 10 10 10
13 13 13 12 12 12 12 12 12 12 12 11 11 11 11 11 11 11 11 10 10 10 10 10 10 10 10 10 10 10 10 10 10 10 10 10 10 10
13 12 12 12 12 12 12 11 11 11 11 11 11 11 11 11 10 10 10 10 10 10 10 10 10 10 10 10 10 10 10 10 10 10 10 9 9 9
12 12 12 12 11 11 11 11 11 11 11 11 11 11 10 10 10 10 10 10 10 10 10 10 10 10 10 10 9 9 10 9 9 9 9 9 9 9
12 12 12 12 11 11 11 11 11 10 10 10 10 10 10 10 10 10 9 9 9 9 9 10 9 9 9 9 9 9 9 9 9 9 9 9 9 9
12 11 11 11 11 11 11 10 10 10 10 10 10 9 9 9 9 9 9 9 9 9 9 9 9 9 9 9 9 9 9 9 9 8 9 9 9 9
Wind_Speed
1 1 1 1 1 1 2 3 3 2 3 3 2 2 3 4 5 4 4 4 5 6 6 7 7 7 7 7 6 6 6 5 5 6 6 5 5 5
1 1 1 1 1 0 1 1 2 3 3 3 3 2 2 3 4 5 5 4 5 6 6 7 7 7 7 7 7 6 6 6 6 6 6 5 5 4
1 2 1 1 0 0 1 1 1 2 3 2 2 1 1 1 2 3 4 4 5 6 6 6 6 7 7 7 7 8 8 8 8 7 6 6 6 5
2 2 2 1 1 1 1 1 2 2 3 3 2 1 1 2 2 2 3 4 4 6 7 7 7 7 7 7 8 9 9 9 9 8 8 7 7 7
3 3 3 2 2 1 1 2 2 2 2 2 2 1 1 1 0 1 1 2 3 5 7 7 8 8 8 8 8 9 9 10 9 9 9 9 8 7
3 3 3 3 4 3 2 2 2 1 1 2 2 1 1 1 1 1 1 2 2 3 4 5 7 9 9 9 9 9 10 10 10 10 10 10 9 9
2 2 3 4 4 4 3 3 3 2 2 2 2 1 1 1 2 2 2 2 3 2 2 2 3 4 6 8 9 10 10 11 11 10 10 11 11 10
3 2 3 2 3 4 5 5 5 4 4 3 3 3 4 3 2 2 2 1 3 3 2 3 2 3 5 7 10 11 12 12 11 11 11 11 11 10
4 3 3 3 3 2 3 3 4 6 7 6 5 5 4 5 3 3 3 3 4 3 2 3 2 4 5 8 11 13 13 13 12 12 11 11 11 10
4 4 4 3 3 3 2 2 3 4 6 5 6 6 6 5 5 5 5 3 3 2 3 3 3 3 4 6 10 13 13 13 13 13 13 13 12 12
4 4 4 4 6 4 2 2 3 4 5 6 7 7 7 7 5 3 2 2 2 3 3 3 2 2 3 3 6 10 12 13 13 13 14 14 14 12
3 4 6 6 7 6 4 4 5 5 4 3 3 5 5 6 7 6 5 4 2 3 3 3 3 2 2 3 3 4 6 9 11 12 13 14 13 9
3 4 4 7 7 7 6 6 8 6 4 4 3 3 3 4 5 5 6 6 5 5 4 4 3 3 3 2 2 3 4 4 6 8 11 13 14 12
4 4 4 6 7 7 6 7 7 5 3 3 3 4 4 5 5 5 6 7 7 7 6 5 4 4 3 3 3 2 3 4 4 4 5 9 11 14
4 5 5 6 6 5 6 6 4 3 3 4 5 6 5 5 4 3 4 4 5 7 7 6 5 4 4 5 4 3 3 3 5 4 4 5 5 6
3 4 5 5 4 4 4 3 3 4 5 5 5 5 4 3 4 3 3 3 2 4 5 6 6 5 4 5 4 4 4 4 4 5 5 5 5 8
1 0 1 1 2 2 3 3 3 3 4 4 4 4 4 4 4 4 3 3 3 4 4 3 3 5 5 5 4 5 4 4 4 5 5 5 6 7
3 1 2 3 3 4 4 3 3 4 4 4 4 4 5 5 5 3 3 4 4 5 5 4 2 1 2 3 5 6 5 4 4 4 4 6 6 6
3 3 3 4 4 4 4 4 4 4 4 3 4 4 4 4 4 4 4 4 5 5 5 4 3 3 4 5 5 6 6 5 4 4 5 6 6 7
3 4 4 4 4 4 4 4 4 4 3 4 4 4 4 4 4 5 5 5 5 5 4 4 4 5 6 6 5 4 7 6 5 5 5 4 4 4
4 4 4 4 4 4 5 4 4 4 4 4 4 4 4 4 5 5 5 6 5 4 5 6 7 7 4 2 2 3 4 7 7 5 5 3 3 2
4 4 4 4 4 4 4 4 4 4 4 4 4 4 4 5 5 6 5 5 5 5 6 5 3 2 2 4 5 5 5 4 6 8 8 8 5 5
4 4 4 3 3 3 3 4 4 4 4 4 4 5 5 5 5 5 5 5 5 5 4 4 3 2 4 5 5 5 6 4 3 3 4 8 11 12
Wind_Direction
196 179 190 241 203 197 174 167 170 216 265 262 255 242 209 200 204 201 210 219 216 214 217 223 230 229 224 219 221 223 219 209 211 218 224 228 233 228
185 152 203 250 240 238 194 196 176 183 232 253 241 248 211 201 203 202 210 216 221 221 219 221 229 229 226 222 218 216 215 212 211 217 226 228 228 221
184 164 201 210 219 234 204 209 195 171 212 260 260 262 202 208 187 201 214 215 229 230 226 224 228 229 227 224 220 220 221 220 217 218 221 217 210 210
202 193 225 215 222 226 202 213 219 200 189 227 252 245 231 225 206 207 214 225 229 239 234 231 228 227 227 228 227 226 224 222 220 218 217 210 204 204
202 199 214 187 228 237 220 219 230 219 184 189 226 232 239 248 290 263 248 231 236 247 242 240 235 233 231 231 232 228 226 223 223 221 216 208 201 200
221 209 205 193 211 216 220 219 215 208 186 181 212 245 244 255 159 226 280 273 258 251 243 245 243 237 234 234 234 230 227 225 225 222 214 208 204 201
244 229 223 207 206 209 211 209 193 193 194 198 215 222 231 213 221 216 237 267 272 243 246 250 241 240 241 240 236 231 228 225 223 218 212 207 203 201
230 253 247 224 230 231 223 215 198 195 200 201 211 220 233 225 222 219 217 224 266 244 206 251 215 237 241 236 235 229 227 224 220 214 210 205 202 202
221 234 249 235 227 232 241 245 242 230 209 198 207 223 218 217 202 215 220 219 238 231 188 245 230 240 247 242 234 228 226 223 220 216 211 207 204 203
230 224 224 238 227 212 220 256 263 253 234 216 213 223 221 214 203 206 215 229 266 249 180 224 245 246 257 244 235 225 223 223 221 216 213 210 207 207
247 234 221 227 232 206 195 243 273 281 265 238 229 230 228 221 201 182 191 190 258 255 207 199 232 250 266 257 246 231 226 225 221 218 216 213 210 207
261 254 239 234 235 217 209 222 249 261 264 270 256 255 241 232 213 198 199 206 227 246 221 189 214 203 270 269 246 233 227 228 224 221 218 213 206 198
246 258 259 251 242 235 222 218 233 239 240 241 250 258 256 247 236 223 211 203 215 237 222 184 203 205 213 247 269 236 220 222 221 226 221 214 207 196
234 243 251 258 254 249 236 236 238 231 228 238 245 249 249 250 247 239 230 223 223 230 225 194 202 208 207 225 248 244 230 225 213 219 218 213 213 211
236 245 257 261 260 256 255 254 237 217 220 234 242 246 241 240 243 252 250 242 244 250 241 222 211 214 206 219 228 225 229 232 213 213 212 208 206 201
258 271 267 263 259 265 273 267 237 224 221 232 242 250 253 247 241 234 237 240 259 278 264 241 218 207 222 230 222 231 221 216 214 216 212 218 214 207
204 326 319 310 294 295 292 278 263 254 246 244 242 252 254 250 248 239 229 226 232 256 275 283 248 221 222 218 230 237 231 230 221 206 204 223 229 221
152 218 248 250 252 257 262 271 266 256 252 249 249 246 246 246 249 244 232 230 241 248 253 256 254 288 299 269 228 228 228 232 228 208 202 216 236 232
185 234 242 243 247 248 247 251 257 255 249 246 247 248 247 246 243 244 241 243 249 252 253 245 219 210 237 263 264 222 219 231 222 217 217 215 229 234
219 234 245 249 249 247 247 248 251 254 248 247 247 249 248 247 249 250 246 242 246 249 256 252 232 222 226 238 246 252 223 215 216 223 229 230 240 246
235 238 240 239 241 243 247 248 249 249 249 245 246 249 249 248 253 253 249 250 246 243 247 250 248 241 230 208 251 272 259 231 217 216 211 213 230 230
241 240 240 238 239 244 247 248 250 251 252 248 249 248 247 246 251 255 254 247 240 240 246 254 258 244 208 223 243 254 261 268 249 236 220 203 197 206
243 240 239 244 251 254 253 254 254 258 258 258 258 255 250 251 250 247 249 248 246 247 251 252 256 250 244 235 239 246 250 255 250 247 254 242 229 227
Height
1536 1536 1536 1536 1536 1537 1537 1537 1537 1536 1535 1535 1535 1535 1535 1534 1534 1534 1533 1533 1532 1532 1531 1530 1530 1530 1530 1530 1530 1530 1530 1530 1531 1531 1531 1531 1531 1531
1534 1534 1534 1535 1535 1535 1535 1535 1535 1535 1534 1534 1533 1533 1533 1532 1532 1531 1531 1531 1530 1529 1529 1528 1528 1527 1527 1527 1527 1527 1528 1528 1528 1528 1528 1528 1528 1528
1532 1532 1533 1533 1533 1533 1533 1533 1533 1533 1532 1531 1531 1531 1531 1530 1529 1529 1529 1528 1528 1527 1526 1526 1525 1525 1524 1524 1524 1524 1524 1525 1525 1525 1525 1526 1526 1526
1530 1531 1531 1531 1531 1531 1531 1531 1531 1531 1530 1529 1529 1528 1528 1528 1527 1527 1526 1526 1525 1524 1524 1523 1523 1522 1522 1522 1522 1522 1521 1522 1522 1522 1522 1523 1523 1523
1529 1529 1529 1529 1529 1529 1529 1528 1528 1528 1528 1527 1526 1526 1526 1525 1525 1524 1524 1523 1522 1522 1521 1520 1520 1520 1519 1519 1519 1519 1519 1519 1519 1519 1519 1520 1520 1520
1527 1527 1527 1527 1526 1526 1526 1526 1526 1525 1525 1524 1524 1523 1523 1522 1522 1521 1520 1520 1519 1519 1518 1518 1517 1517 1516 1516 1516 1516 1516 1516 1516 1516 1516 1517 1517 1518
1524 1525 1525 1525 1524 1524 1524 1523 1523 1522 1522 1522 1521 1520 1520 1519 1518 1518 1517 1517 1516 1516 1515 1515 1514 1514 1514 1513 1513 1513 1513 1513 1513 1513 1513 1513 1514 1514
1522 1522 1522 1522 1522 1521 1521 1520 1520 1519 1519 1518 1518 1517 1516 1516 1516 1515 1514 1513 1512 1513 1512 1511 1511 1511 1510 1510 1510 1510 1510 1510 1510 1510 1510 1510 1510 1511
1520 1520 1520 1520 1519 1519 1518 1517 1517 1516 1516 1515 1514 1514 1514 1513 1513 1512 1511 1510 1510 1509 1509 1507 1507 1507 1507 1507 1507 1507 1506 1506 1506 1506 1507 1507 1507 1507
1517 1517 1517 1517 1516 1516 1515 1514 1513 1513 1512 1512 1511 1511 1510 1510 1509 1509 1508 1507 1507 1506 1506 1504 1503 1503 1503 1503 1503 1503 1503 1503 1503 1503 1503 1504 1504 1504
1514 1514 1514 1513 1513 1512 1512 1511 1510 1509 1509 1508 1508 1507 1506 1506 1505 1505 1504 1503 1502 1502 1502 1501 1500 1499 1499 1499 1499 1499 1499 1499 1499 1499 1500 1500 1501 1501
1511 1511 1511 1510 1510 1509 1508 1507 1506 1506 1505 1505 1504 1504 1503 1502 1501 1501 1500 1499 1498 1497 1497 1497 1496 1496 1495 1494 1495 1495 1495 1495 1495 1495 1495 1496 1497 1497
1507 1507 1507 1506 1506 1505 1505 1504 1503 1503 1502 1501 1500 1500 1499 1498 1497 1497 1496 1495 1495 1494 1494 1493 1492 1492 1491 1490 1490 1490 1490 1490 1491 1491 1491 1492 1492 1493
1503 1503 1503 1502 1502 1501 1500 1500 1500 1499 1498 1497 1496 1495 1494 1494 1493 1493 1492 1491 1491 1490 1490 1489 1488 1488 1487 1486 1486 1485 1486 1486 1486 1486 1487 1487 1487 1488
1499 1499 1498 1498 1497 1496 1496 1495 1494 1494 1493 1493 1492 1491 1491 1490 1489 1489 1488 1487 1486 1486 1485 1485 1484 1483 1483 1482 1481 1481 1481 1481 1481 1481 1481 1482 1482 1482
1495 1495 1494 1493 1493 1492 1491 1490 1490 1489 1489 1488 1487 1487 1486 1486 1485 1484 1483 1482 1481 1481 1481 1480 1479 1479 1478 1478 1477 1476 1476 1476 1476 1476 1476 1477 1477 1477
1490 1490 1489 1488 1488 1487 1486 1486 1485 1485 1484 1483 1482 1482 1481 1480 1480 1479 1478 1477 1476 1475 1475 1475 1474 1474 1474 1473 1472 1471 1471 1471 1471 1471 1471 1471 1472 1473
1486 1485 1484 1484 1483 1483 1482 1481 1480 1479 1479 1478 1477 1477 1476 1475 1474 1474 1473 1473 1471 1471 1470 1470 1470 1469 1469 1468 1468 1467 1467 1466 1466 1466 1466 1466 1467 1467
1482 1481 1480 1480 1479 1479 1478 1477 1476 1475 1474 1473 1472 1471 1471 1470 1469 1468 1468 1467 1466 1466 1466 1465 1465 1464 1463 1462 1462 1463 1462 1461 1461 1461 1461 1461 1461 1462
1478 1477 1476 1476 1475 1474 1474 1473 1472 1471 1470 1468 1467 1466 1466 1465 1464 1463 1462 1462 1461 1461 1460 1460 1460 1459 1458 1457 1457 1456 1457 1456 1456 1456 1456 1456 1457 1458
1474 1473 1472 1472 1471 1470 1469 1468 1467 1465 1464 1463 1462 1461 1460 1459 1459 1458 1457 1456 1456 1455 1455 1454 1454 1454 1454 1453 1452 1450 1451 1451 1451 1451 1451 1451 1451 1451
1470 1469 1468 1467 1466 1465 1464 1462 1461 1460 1459 1458 1457 1455 1455 1454 1453 1452 1452 1451 1450 1450 1449 1449 1449 1449 1448 1447 1446 1445 1445 1445 1445 1446 1446 1447 1446 1445
1466 1465 1464 1463 1462 1460 1459 1458 1456 1455 1454 1453 1452 1450 1449 1448 1447 1446 1446 1445 1445 1444 1444 1443 1443 1443 1442 1441 1440 1440 1439 1439 1439 1439 1440 1441 1441 1442